Year,Month,Day,Hour,Minute,Value (Times are PST for temperature in C)
2008,03,05,00,00,1.20
2008,03,05,00,01,1.20
2008,03,05,00,02,1.20
2008,03,05,00,03,1.20
2008,03,05,00,04,1.20
2008,03,05,00,05,1.20
2008,03,05,00,06,1.20
2008,03,05,00,07,1.10
2008,03,05,00,08,1.10
2008,03,05,00,09,1.10
2008,03,05,00,10,1.10
2008,03,05,00,11,1.10
2008,03,05,00,12,1.10
2008,03,05,00,13,1.10
2008,03,05,00,14,1.10
2008,03,05,00,15,1.10
2008,03,05,00,16,1.10
2008,03,05,00,17,1.10
2008,03,05,00,18,1.10
2008,03,05,00,19,1.10
2008,03,05,00,20,1.10
2008,03,05,00,21,1.10
2008,03,05,00,22,1.10
2008,03,05,00,23,1.10
2008,03,05,00,24,1.10
2008,03,05,00,25,1.10
2008,03,05,00,26,1.10
2008,03,05,00,27,1.10
2008,03,05,00,28,1.10
2008,03,05,00,29,1.10
2008,03,05,00,30,1.00
2008,03,05,00,31,1.00
2008,03,05,00,32,1.00
2008,03,05,00,33,1.00
2008,03,05,00,34,1.00
2008,03,05,00,35,1.00
2008,03,05,00,36,1.00
2008,03,05,00,37,1.00
2008,03,05,00,38,1.00
2008,03,05,00,39,1.00
2008,03,05,00,40,1.00
2008,03,05,00,41,1.00
2008,03,05,00,42,1.00
2008,03,05,00,43,1.00
2008,03,05,00,44,1.00
2008,03,05,00,45,1.00
2008,03,05,00,46,1.00
2008,03,05,00,47,1.00
2008,03,05,00,48,1.00
2008,03,05,00,49,0.90
2008,03,05,00,50,0.90
2008,03,05,00,51,0.90
2008,03,05,00,52,0.90
2008,03,05,00,53,0.90
2008,03,05,00,54,0.90
2008,03,05,00,55,0.90
2008,03,05,00,56,0.90
2008,03,05,00,57,0.90
2008,03,05,00,58,0.90
2008,03,05,00,59,0.90
2008,03,05,01,00,0.90
2008,03,05,01,01,0.90
2008,03,05,01,02,0.90
2008,03,05,01,03,0.90
2008,03,05,01,04,0.90
2008,03,05,01,05,0.90
2008,03,05,01,06,0.90
2008,03,05,01,07,0.90
2008,03,05,01,08,0.90
2008,03,05,01,09,0.90
2008,03,05,01,10,0.90
2008,03,05,01,11,0.90
2008,03,05,01,12,0.90
2008,03,05,01,13,0.90
2008,03,05,01,14,0.90
2008,03,05,01,15,0.90
2008,03,05,01,16,0.90
2008,03,05,01,17,0.90
2008,03,05,01,18,0.90
2008,03,05,01,19,0.90
2008,03,05,01,20,0.90
2008,03,05,01,21,0.80
2008,03,05,01,22,0.80
2008,03,05,01,23,0.80
2008,03,05,01,24,0.80
2008,03,05,01,25,0.80
2008,03,05,01,26,0.80
2008,03,05,01,27,0.80
2008,03,05,01,28,0.80
2008,03,05,01,29,0.80
2008,03,05,01,30,0.80
2008,03,05,01,31,0.80
2008,03,05,01,32,0.80
2008,03,05,01,33,0.80
2008,03,05,01,34,0.80
2008,03,05,01,35,0.80
2008,03,05,01,36,0.80
2008,03,05,01,37,0.80
2008,03,05,01,38,0.80
2008,03,05,01,39,0.80
2008,03,05,01,40,0.80
2008,03,05,01,41,0.80
2008,03,05,01,42,0.80
2008,03,05,01,43,0.80
2008,03,05,01,44,0.80
2008,03,05,01,45,0.80
2008,03,05,01,46,0.80
2008,03,05,01,47,0.80
2008,03,05,01,48,0.80
2008,03,05,01,49,0.80
2008,03,05,01,50,0.80
2008,03,05,01,51,0.80
2008,03,05,01,52,0.70
2008,03,05,01,53,0.70
2008,03,05,01,54,0.70
2008,03,05,01,55,0.70
2008,03,05,01,56,0.70
2008,03,05,01,57,0.70
2008,03,05,01,58,0.70
2008,03,05,01,59,0.70
2008,03,05,02,00,0.70
2008,03,05,02,01,0.70
2008,03,05,02,02,0.70
2008,03,05,02,03,0.70
2008,03,05,02,04,0.70
2008,03,05,02,05,0.70
2008,03,05,02,06,0.70
2008,03,05,02,07,0.70
2008,03,05,02,08,0.70
2008,03,05,02,09,0.70
2008,03,05,02,10,0.70
2008,03,05,02,11,0.70
2008,03,05,02,12,0.70
2008,03,05,02,13,0.70
2008,03,05,02,14,0.70
2008,03,05,02,15,0.70
2008,03,05,02,16,0.70
2008,03,05,02,17,0.70
2008,03,05,02,18,0.70
2008,03,05,02,19,0.70
2008,03,05,02,20,0.70
2008,03,05,02,21,0.70
2008,03,05,02,22,0.70
2008,03,05,02,23,0.70
2008,03,05,02,24,0.70
2008,03,05,02,25,0.70
2008,03,05,02,26,0.70
2008,03,05,02,27,0.70
2008,03,05,02,28,0.70
2008,03,05,02,29,0.70
2008,03,05,02,30,0.70
2008,03,05,02,31,0.70
2008,03,05,02,32,0.70
2008,03,05,02,33,0.70
2008,03,05,02,34,0.70
2008,03,05,02,35,0.70
2008,03,05,02,36,0.70
2008,03,05,02,37,0.70
2008,03,05,02,38,0.70
2008,03,05,02,39,0.70
2008,03,05,02,40,0.70
2008,03,05,02,41,0.70
2008,03,05,02,42,0.70
2008,03,05,02,43,0.70
2008,03,05,02,44,0.70
2008,03,05,02,45,0.70
2008,03,05,02,46,0.70
2008,03,05,02,47,0.70
2008,03,05,02,48,0.70
2008,03,05,02,49,0.70
2008,03,05,02,50,0.70
2008,03,05,02,51,0.70
2008,03,05,02,52,0.70
2008,03,05,02,53,0.70
2008,03,05,02,54,0.70
2008,03,05,02,55,0.70
2008,03,05,02,56,0.70
2008,03,05,02,57,0.70
2008,03,05,02,58,0.70
2008,03,05,02,59,0.60
2008,03,05,03,00,0.60
2008,03,05,03,01,0.60
2008,03,05,03,02,0.60
2008,03,05,03,03,0.60
2008,03,05,03,04,0.60
2008,03,05,03,05,0.60
2008,03,05,03,06,0.60
2008,03,05,03,07,0.60
2008,03,05,03,08,0.60
2008,03,05,03,09,0.60
2008,03,05,03,10,0.60
2008,03,05,03,11,0.60
2008,03,05,03,12,0.60
2008,03,05,03,13,0.60
2008,03,05,03,14,0.60
2008,03,05,03,15,0.60
2008,03,05,03,16,0.60
2008,03,05,03,17,0.60
2008,03,05,03,18,0.60
2008,03,05,03,19,0.60
2008,03,05,03,20,0.60
2008,03,05,03,21,0.60
2008,03,05,03,22,0.60
2008,03,05,03,23,0.60
2008,03,05,03,24,0.60
2008,03,05,03,25,0.60
2008,03,05,03,26,0.60
2008,03,05,03,27,0.60
2008,03,05,03,28,0.60
2008,03,05,03,29,0.60
2008,03,05,03,30,0.60
2008,03,05,03,31,0.50
2008,03,05,03,32,0.50
2008,03,05,03,33,0.50
2008,03,05,03,34,0.50
2008,03,05,03,35,0.50
2008,03,05,03,36,0.50
2008,03,05,03,37,0.50
2008,03,05,03,38,0.50
2008,03,05,03,39,0.50
2008,03,05,03,40,0.50
2008,03,05,03,41,0.50
2008,03,05,03,42,0.50
2008,03,05,03,43,0.50
2008,03,05,03,44,0.50
2008,03,05,03,45,0.50
2008,03,05,03,46,0.50
2008,03,05,03,47,0.50
2008,03,05,03,48,0.50
2008,03,05,03,49,0.50
2008,03,05,03,50,0.50
2008,03,05,03,51,0.50
2008,03,05,03,52,0.50
2008,03,05,03,53,0.50
2008,03,05,03,54,0.50
2008,03,05,03,55,0.50
2008,03,05,03,56,0.50
2008,03,05,03,57,0.50
2008,03,05,03,58,0.50
2008,03,05,03,59,0.50
2008,03,05,04,00,0.50
2008,03,05,04,01,0.50
2008,03,05,04,02,0.50
2008,03,05,04,03,0.50
2008,03,05,04,04,0.50
2008,03,05,04,05,0.50
2008,03,05,04,06,0.50
2008,03,05,04,07,0.60
2008,03,05,04,08,0.60
2008,03,05,04,09,0.60
2008,03,05,04,10,0.60
2008,03,05,04,11,0.60
2008,03,05,04,12,0.60
2008,03,05,04,13,0.60
2008,03,05,04,14,0.60
2008,03,05,04,15,0.60
2008,03,05,04,16,0.60
2008,03,05,04,17,0.70
2008,03,05,04,18,0.70
2008,03,05,04,19,0.70
2008,03,05,04,20,0.70
2008,03,05,04,21,0.70
2008,03,05,04,22,0.70
2008,03,05,04,23,0.70
2008,03,05,04,24,0.70
2008,03,05,04,25,0.70
2008,03,05,04,26,0.70
2008,03,05,04,27,0.70
2008,03,05,04,28,0.70
2008,03,05,04,29,0.70
2008,03,05,04,30,0.70
2008,03,05,04,31,0.70
2008,03,05,04,32,0.70
2008,03,05,04,33,0.70
2008,03,05,04,34,0.70
2008,03,05,04,35,0.70
2008,03,05,04,36,0.70
2008,03,05,04,37,0.70
2008,03,05,04,38,0.70
2008,03,05,04,39,0.70
2008,03,05,04,40,0.70
2008,03,05,04,41,0.70
2008,03,05,04,42,0.70
2008,03,05,04,43,0.70
2008,03,05,04,44,0.70
2008,03,05,04,45,0.60
2008,03,05,04,46,0.60
2008,03,05,04,47,0.60
2008,03,05,04,48,0.60
2008,03,05,04,49,0.60
2008,03,05,04,50,0.60
2008,03,05,04,51,0.60
2008,03,05,04,52,0.60
2008,03,05,04,53,0.60
2008,03,05,04,54,0.60
2008,03,05,04,55,0.60
2008,03,05,04,56,0.60
2008,03,05,04,57,0.60
2008,03,05,04,58,0.60
2008,03,05,04,59,0.60
2008,03,05,05,00,0.60
2008,03,05,05,01,0.60
2008,03,05,05,02,0.60
2008,03,05,05,03,0.60
2008,03,05,05,04,0.60
2008,03,05,05,05,0.60
2008,03,05,05,06,0.50
2008,03,05,05,07,0.50
2008,03,05,05,08,0.50
2008,03,05,05,09,0.50
2008,03,05,05,10,0.50
2008,03,05,05,11,0.50
2008,03,05,05,12,0.50
2008,03,05,05,13,0.50
2008,03,05,05,14,0.50
2008,03,05,05,15,0.50
2008,03,05,05,16,0.50
2008,03,05,05,17,0.50
2008,03,05,05,18,0.50
2008,03,05,05,19,0.50
2008,03,05,05,20,0.50
2008,03,05,05,21,0.50
2008,03,05,05,22,0.50
2008,03,05,05,23,0.50
2008,03,05,05,24,0.50
2008,03,05,05,25,0.50
2008,03,05,05,26,0.50
2008,03,05,05,27,0.50
2008,03,05,05,28,0.50
2008,03,05,05,29,0.50
2008,03,05,05,30,0.50
2008,03,05,05,31,0.50
2008,03,05,05,32,0.50
2008,03,05,05,33,0.50
2008,03,05,05,34,0.50
2008,03,05,05,35,0.50
2008,03,05,05,36,0.50
2008,03,05,05,37,0.50
2008,03,05,05,38,0.50
2008,03,05,05,39,0.50
2008,03,05,05,40,0.50
2008,03,05,05,41,0.50
2008,03,05,05,42,0.50
2008,03,05,05,43,0.50
2008,03,05,05,44,0.50
2008,03,05,05,45,0.50
2008,03,05,05,46,0.50
2008,03,05,05,47,0.50
2008,03,05,05,48,0.50
2008,03,05,05,49,0.60
2008,03,05,05,50,0.60
2008,03,05,05,51,0.60
2008,03,05,05,52,0.60
2008,03,05,05,53,0.60
2008,03,05,05,54,0.60
2008,03,05,05,55,0.60
2008,03,05,05,56,0.60
2008,03,05,05,57,0.60
2008,03,05,05,58,0.70
2008,03,05,05,59,0.70
2008,03,05,06,00,0.70
2008,03,05,06,01,0.70
2008,03,05,06,02,0.70
2008,03,05,06,03,0.70
2008,03,05,06,04,0.80
2008,03,05,06,05,0.80
2008,03,05,06,06,0.80
2008,03,05,06,07,0.80
2008,03,05,06,08,0.80
2008,03,05,06,09,0.80
2008,03,05,06,10,0.90
2008,03,05,06,11,0.90
2008,03,05,06,12,0.90
2008,03,05,06,13,0.90
2008,03,05,06,14,0.90
2008,03,05,06,15,1.00
2008,03,05,06,16,1.00
2008,03,05,06,17,1.00
2008,03,05,06,18,1.00
2008,03,05,06,19,1.10
2008,03,05,06,20,1.10
2008,03,05,06,21,1.10
2008,03,05,06,22,1.10
2008,03,05,06,23,1.10
2008,03,05,06,24,1.10
2008,03,05,06,25,1.20
2008,03,05,06,26,1.20
2008,03,05,06,27,1.20
2008,03,05,06,28,1.20
2008,03,05,06,29,1.20
2008,03,05,06,30,1.20
2008,03,05,06,31,1.20
2008,03,05,06,32,1.30
2008,03,05,06,33,1.30
2008,03,05,06,34,1.30
2008,03,05,06,35,1.30
2008,03,05,06,36,1.30
2008,03,05,06,37,1.30
2008,03,05,06,38,1.30
2008,03,05,06,39,1.30
2008,03,05,06,40,1.30
2008,03,05,06,41,1.30
2008,03,05,06,42,1.30
2008,03,05,06,43,1.30
2008,03,05,06,44,1.30
2008,03,05,06,45,1.30
2008,03,05,06,46,1.40
2008,03,05,06,47,1.40
2008,03,05,06,48,1.40
2008,03,05,06,49,1.40
2008,03,05,06,50,1.40
2008,03,05,06,51,1.50
2008,03,05,06,52,1.50
2008,03,05,06,53,1.50
2008,03,05,06,54,1.60
2008,03,05,06,55,1.60
2008,03,05,06,56,1.60
2008,03,05,06,57,1.60
2008,03,05,06,58,1.60
2008,03,05,06,59,1.60
2008,03,05,07,00,1.60
2008,03,05,07,01,1.70
2008,03,05,07,02,1.70
2008,03,05,07,03,1.70
2008,03,05,07,04,1.70
2008,03,05,07,05,1.70
2008,03,05,07,06,1.80
2008,03,05,07,07,1.80
2008,03,05,07,08,1.80
2008,03,05,07,09,1.80
2008,03,05,07,10,1.80
2008,03,05,07,11,1.80
2008,03,05,07,12,1.80
2008,03,05,07,13,1.80
2008,03,05,07,14,1.90
2008,03,05,07,15,1.90
2008,03,05,07,16,1.90
2008,03,05,07,17,1.90
2008,03,05,07,18,1.90
2008,03,05,07,19,1.90
2008,03,05,07,20,1.90
2008,03,05,07,21,1.90
2008,03,05,07,22,2.00
2008,03,05,07,23,2.00
2008,03,05,07,24,2.00
2008,03,05,07,25,2.00
2008,03,05,07,26,2.00
2008,03,05,07,27,2.10
2008,03,05,07,28,2.10
2008,03,05,07,29,2.10
2008,03,05,07,30,2.10
2008,03,05,07,31,2.10
2008,03,05,07,32,2.10
2008,03,05,07,33,2.20
2008,03,05,07,34,2.20
2008,03,05,07,35,2.20
2008,03,05,07,36,2.20
2008,03,05,07,37,2.20
2008,03,05,07,38,2.20
2008,03,05,07,39,2.20
2008,03,05,07,40,2.20
2008,03,05,07,41,2.30
2008,03,05,07,42,2.30
2008,03,05,07,43,2.30
2008,03,05,07,44,2.30
2008,03,05,07,45,2.30
2008,03,05,07,46,2.30
2008,03,05,07,47,2.30
2008,03,05,07,48,2.40
2008,03,05,07,49,2.40
2008,03,05,07,50,2.40
2008,03,05,07,51,2.40
2008,03,05,07,52,2.40
2008,03,05,07,53,2.40
2008,03,05,07,54,2.50
2008,03,05,07,55,2.50
2008,03,05,07,56,2.50
2008,03,05,07,57,2.60
2008,03,05,07,58,2.60
2008,03,05,07,59,2.60
2008,03,05,08,00,2.60
2008,03,05,08,01,2.60
2008,03,05,08,02,2.70
2008,03,05,08,03,2.70
2008,03,05,08,04,2.70
2008,03,05,08,05,2.70
2008,03,05,08,06,2.70
2008,03,05,08,07,2.80
2008,03,05,08,08,2.80
2008,03,05,08,09,2.80
2008,03,05,08,10,2.80
2008,03,05,08,11,2.90
2008,03,05,08,12,2.90
2008,03,05,08,13,2.90
2008,03,05,08,14,3.00
2008,03,05,08,15,3.00
2008,03,05,08,16,3.10
2008,03,05,08,17,3.10
2008,03,05,08,18,3.10
2008,03,05,08,19,3.10
2008,03,05,08,20,3.20
2008,03,05,08,21,3.20
2008,03,05,08,22,3.20
2008,03,05,08,23,3.20
2008,03,05,08,24,3.30
2008,03,05,08,25,3.30
2008,03,05,08,26,3.30
2008,03,05,08,27,3.30
2008,03,05,08,28,3.30
2008,03,05,08,29,3.40
2008,03,05,08,30,3.40
2008,03,05,08,31,3.40
2008,03,05,08,32,3.40
2008,03,05,08,33,3.40
2008,03,05,08,34,3.50
2008,03,05,08,35,3.50
2008,03,05,08,36,3.50
2008,03,05,08,37,3.60
2008,03,05,08,38,3.60
2008,03,05,08,39,3.60
2008,03,05,08,40,3.70
2008,03,05,08,41,3.70
2008,03,05,08,42,3.70
2008,03,05,08,43,3.70
2008,03,05,08,44,3.70
2008,03,05,08,45,3.80
2008,03,05,08,46,3.80
2008,03,05,08,47,3.80
2008,03,05,08,48,3.80
2008,03,05,08,49,3.80
2008,03,05,08,50,3.80
2008,03,05,08,51,3.80
2008,03,05,08,52,3.90
2008,03,05,08,53,3.90
2008,03,05,08,54,3.90
2008,03,05,08,55,3.90
2008,03,05,08,56,3.90
2008,03,05,08,57,4.00
2008,03,05,08,58,4.00
2008,03,05,08,59,4.00
2008,03,05,09,00,4.10
2008,03,05,09,01,4.10
2008,03,05,09,02,4.10
2008,03,05,09,03,4.10
2008,03,05,09,04,4.10
2008,03,05,09,05,4.10
2008,03,05,09,06,4.20
2008,03,05,09,07,4.20
2008,03,05,09,08,4.20
2008,03,05,09,09,4.20
2008,03,05,09,10,4.20
2008,03,05,09,11,4.30
2008,03,05,09,12,4.30
2008,03,05,09,13,4.30
2008,03,05,09,14,4.30
2008,03,05,09,15,4.30
2008,03,05,09,16,4.40
2008,03,05,09,17,4.40
2008,03,05,09,18,4.40
2008,03,05,09,19,4.50
2008,03,05,09,20,4.50
2008,03,05,09,21,4.50
2008,03,05,09,22,4.60
2008,03,05,09,23,4.60
2008,03,05,09,24,4.60
2008,03,05,09,25,4.70
2008,03,05,09,26,4.70
2008,03,05,09,27,4.70
2008,03,05,09,28,4.70
2008,03,05,09,29,4.80
2008,03,05,09,30,4.80
2008,03,05,09,31,4.80
2008,03,05,09,32,4.80
2008,03,05,09,33,4.80
2008,03,05,09,34,4.90
2008,03,05,09,35,4.90
2008,03,05,09,36,4.90
2008,03,05,09,37,5.00
2008,03,05,09,38,5.00
2008,03,05,09,39,5.10
2008,03,05,09,40,5.10
2008,03,05,09,41,5.10
2008,03,05,09,42,5.10
2008,03,05,09,43,5.10
2008,03,05,09,44,5.10
2008,03,05,09,45,5.10
2008,03,05,09,46,5.10
2008,03,05,09,47,5.10
2008,03,05,09,48,5.20
2008,03,05,09,49,5.10
2008,03,05,09,50,5.20
2008,03,05,09,51,5.20
2008,03,05,09,52,5.20
2008,03,05,09,53,5.20
2008,03,05,09,54,5.30
2008,03,05,09,55,5.30
2008,03,05,09,56,5.30
2008,03,05,09,57,5.30
2008,03,05,09,58,5.30
2008,03,05,09,59,5.30
2008,03,05,10,00,5.30
2008,03,05,10,01,5.30
2008,03,05,10,02,5.30
2008,03,05,10,03,5.30
2008,03,05,10,04,5.30
2008,03,05,10,05,5.40
2008,03,05,10,06,5.40
2008,03,05,10,07,5.40
2008,03,05,10,08,5.40
2008,03,05,10,09,5.50
2008,03,05,10,10,5.50
2008,03,05,10,11,5.50
2008,03,05,10,12,5.50
2008,03,05,10,13,5.50
2008,03,05,10,14,5.50
2008,03,05,10,15,5.50
2008,03,05,10,16,5.50
2008,03,05,10,17,5.50
2008,03,05,10,18,5.50
2008,03,05,10,19,5.50
2008,03,05,10,20,5.50
2008,03,05,10,21,5.50
2008,03,05,10,22,5.50
2008,03,05,10,23,5.50
2008,03,05,10,24,5.50
2008,03,05,10,25,5.50
2008,03,05,10,26,5.50
2008,03,05,10,27,5.60
2008,03,05,10,28,5.50
2008,03,05,10,29,5.60
2008,03,05,10,30,5.50
2008,03,05,10,31,5.60
2008,03,05,10,32,5.50
2008,03,05,10,33,5.60
2008,03,05,10,34,5.60
2008,03,05,10,35,5.60
2008,03,05,10,36,5.60
2008,03,05,10,37,5.60
2008,03,05,10,38,5.60
2008,03,05,10,39,5.70
2008,03,05,10,40,5.70
2008,03,05,10,41,5.70
2008,03,05,10,42,5.70
2008,03,05,10,43,5.70
2008,03,05,10,44,5.70
2008,03,05,10,45,5.70
2008,03,05,10,46,5.70
2008,03,05,10,47,5.70
2008,03,05,10,48,5.70
2008,03,05,10,49,5.70
2008,03,05,10,50,5.70
2008,03,05,10,51,5.70
2008,03,05,10,52,5.70
2008,03,05,10,53,5.70
2008,03,05,10,54,5.70
2008,03,05,10,55,5.70
2008,03,05,10,56,5.70
2008,03,05,10,57,5.80
2008,03,05,10,58,5.70
2008,03,05,10,59,5.80
2008,03,05,11,00,5.80
2008,03,05,11,01,5.70
2008,03,05,11,02,5.70
2008,03,05,11,03,5.70
2008,03,05,11,04,5.70
2008,03,05,11,05,5.70
2008,03,05,11,06,5.80
2008,03,05,11,07,5.80
2008,03,05,11,08,5.80
2008,03,05,11,09,5.70
2008,03,05,11,10,5.70
2008,03,05,11,11,5.80
2008,03,05,11,12,5.80
2008,03,05,11,13,5.80
2008,03,05,11,14,5.80
2008,03,05,11,15,5.80
2008,03,05,11,16,5.80
2008,03,05,11,17,5.80
2008,03,05,11,18,5.80
2008,03,05,11,19,5.80
2008,03,05,11,20,5.80
2008,03,05,11,21,5.80
2008,03,05,11,22,5.80
2008,03,05,11,23,5.90
2008,03,05,11,24,5.90
2008,03,05,11,25,5.90
2008,03,05,11,26,6.00
2008,03,05,11,27,6.00
2008,03,05,11,28,6.10
2008,03,05,11,29,6.10
2008,03,05,11,30,6.20
2008,03,05,11,31,6.20
2008,03,05,11,32,6.30
2008,03,05,11,33,6.30
2008,03,05,11,34,6.40
2008,03,05,11,35,6.40
2008,03,05,11,36,6.40
2008,03,05,11,37,6.50
2008,03,05,11,38,6.60
2008,03,05,11,39,6.60
2008,03,05,11,40,6.60
2008,03,05,11,41,6.70
2008,03,05,11,42,6.70
2008,03,05,11,43,6.70
2008,03,05,11,44,6.80
2008,03,05,11,45,6.80
2008,03,05,11,46,6.90
2008,03,05,11,47,6.90
2008,03,05,11,48,7.00
2008,03,05,11,49,7.00
2008,03,05,11,50,7.10
2008,03,05,11,51,7.20
2008,03,05,11,52,7.20
2008,03,05,11,53,7.20
2008,03,05,11,54,7.20
2008,03,05,11,55,7.20
2008,03,05,11,56,7.20
2008,03,05,11,57,7.20
2008,03,05,11,58,7.30
2008,03,05,11,59,7.30
2008,03,05,12,00,7.30
2008,03,05,12,01,7.30
2008,03,05,12,02,7.30
2008,03,05,12,03,7.30
2008,03,05,12,04,7.30
2008,03,05,12,05,7.40
2008,03,05,12,06,7.40
2008,03,05,12,07,7.50
2008,03,05,12,08,7.60
2008,03,05,12,09,7.60
2008,03,05,12,10,7.70
2008,03,05,12,11,7.70
2008,03,05,12,12,7.80
2008,03,05,12,13,7.90
2008,03,05,12,14,7.90
2008,03,05,12,15,8.00
2008,03,05,12,16,8.10
2008,03,05,12,17,8.10
2008,03,05,12,18,8.20
2008,03,05,12,19,8.20
2008,03,05,12,20,8.20
2008,03,05,12,21,8.20
2008,03,05,12,22,8.20
2008,03,05,12,23,8.20
2008,03,05,12,24,8.10
2008,03,05,12,25,8.10
2008,03,05,12,26,8.00
2008,03,05,12,27,8.00
2008,03,05,12,28,7.90
2008,03,05,12,29,7.90
2008,03,05,12,30,7.90
2008,03,05,12,31,7.90
2008,03,05,12,32,7.80
2008,03,05,12,33,7.80
2008,03,05,12,34,7.80
2008,03,05,12,35,7.80
2008,03,05,12,36,7.80
2008,03,05,12,37,7.80
2008,03,05,12,38,7.80
2008,03,05,12,39,7.80
2008,03,05,12,40,7.80
2008,03,05,12,41,7.80
2008,03,05,12,42,7.80
2008,03,05,12,43,7.80
2008,03,05,12,44,7.80
2008,03,05,12,45,7.70
2008,03,05,12,46,7.80
2008,03,05,12,47,7.80
2008,03,05,12,48,7.80
2008,03,05,12,49,7.70
2008,03,05,12,50,7.80
2008,03,05,12,51,7.80
2008,03,05,12,52,7.80
2008,03,05,12,53,7.80
2008,03,05,12,54,7.80
2008,03,05,12,55,7.80
2008,03,05,12,56,7.80
2008,03,05,12,57,7.80
2008,03,05,12,58,7.80
2008,03,05,12,59,7.80
2008,03,05,13,00,7.90
2008,03,05,13,01,7.90
2008,03,05,13,02,7.90
2008,03,05,13,03,7.90
2008,03,05,13,04,7.90
2008,03,05,13,05,8.00
2008,03,05,13,06,8.00
2008,03,05,13,07,8.10
2008,03,05,13,08,8.10
2008,03,05,13,09,8.10
2008,03,05,13,10,8.10
2008,03,05,13,11,8.20
2008,03,05,13,12,8.20
2008,03,05,13,13,8.20
2008,03,05,13,14,8.20
2008,03,05,13,15,8.30
2008,03,05,13,16,8.30
2008,03,05,13,17,8.40
2008,03,05,13,18,8.50
2008,03,05,13,19,8.50
2008,03,05,13,20,8.60
2008,03,05,13,21,8.60
2008,03,05,13,22,8.70
2008,03,05,13,23,8.70
2008,03,05,13,24,8.70
2008,03,05,13,25,8.70
2008,03,05,13,26,8.70
2008,03,05,13,27,8.80
2008,03,05,13,28,8.80
2008,03,05,13,29,8.70
2008,03,05,13,30,8.70
2008,03,05,13,31,8.70
2008,03,05,13,32,8.70
2008,03,05,13,33,8.80
2008,03,05,13,34,8.80
2008,03,05,13,35,8.90
2008,03,05,13,36,9.00
2008,03,05,13,37,9.10
2008,03,05,13,38,9.20
2008,03,05,13,39,9.30
2008,03,05,13,40,9.40
2008,03,05,13,41,9.50
2008,03,05,13,42,9.50
2008,03,05,13,43,9.50
2008,03,05,13,44,9.60
2008,03,05,13,45,9.60
2008,03,05,13,46,9.70
2008,03,05,13,47,9.80
2008,03,05,13,48,9.80
2008,03,05,13,49,9.80
2008,03,05,13,50,9.80
2008,03,05,13,51,9.80
2008,03,05,13,52,9.70
2008,03,05,13,53,9.60
2008,03,05,13,54,9.60
2008,03,05,13,55,9.60
2008,03,05,13,56,9.60
2008,03,05,13,57,9.70
2008,03,05,13,58,9.70
2008,03,05,13,59,9.70
2008,03,05,14,00,9.70
2008,03,05,14,01,9.70
2008,03,05,14,02,9.60
2008,03,05,14,03,9.60
2008,03,05,14,04,9.60
2008,03,05,14,05,9.60
2008,03,05,14,06,9.60
2008,03,05,14,07,9.60
2008,03,05,14,08,9.60
2008,03,05,14,09,9.60
2008,03,05,14,10,9.60
2008,03,05,14,11,9.50
2008,03,05,14,12,9.30
2008,03,05,14,13,9.20
2008,03,05,14,14,9.10
2008,03,05,14,15,9.00
2008,03,05,14,16,9.00
2008,03,05,14,17,9.10
2008,03,05,14,18,9.10
2008,03,05,14,19,9.10
2008,03,05,14,20,9.10
2008,03,05,14,21,9.10
2008,03,05,14,22,9.00
2008,03,05,14,23,9.00
2008,03,05,14,24,9.10
2008,03,05,14,25,9.10
2008,03,05,14,26,9.20
2008,03,05,14,27,9.20
2008,03,05,14,28,9.20
2008,03,05,14,29,9.20
2008,03,05,14,30,9.20
2008,03,05,14,31,9.10
2008,03,05,14,32,9.00
2008,03,05,14,33,9.00
2008,03,05,14,34,9.00
2008,03,05,14,35,9.00
2008,03,05,14,36,9.00
2008,03,05,14,37,9.00
2008,03,05,14,38,9.10
2008,03,05,14,39,9.10
2008,03,05,14,40,9.10
2008,03,05,14,41,9.10
2008,03,05,14,42,9.10
2008,03,05,14,43,9.20
2008,03,05,14,44,9.20
2008,03,05,14,45,9.20
2008,03,05,14,46,9.20
2008,03,05,14,47,9.20
2008,03,05,14,48,9.20
2008,03,05,14,49,9.20
2008,03,05,14,50,9.20
2008,03,05,14,51,9.20
2008,03,05,14,52,9.30
2008,03,05,14,53,9.30
2008,03,05,14,54,9.30
2008,03,05,14,55,9.30
2008,03,05,14,56,9.30
2008,03,05,14,57,9.30
2008,03,05,14,58,9.30
2008,03,05,14,59,9.20
2008,03,05,15,00,9.30
2008,03,05,15,01,9.30
2008,03,05,15,02,9.30
2008,03,05,15,03,9.40
2008,03,05,15,04,9.40
2008,03,05,15,05,9.40
2008,03,05,15,06,9.50
2008,03,05,15,07,9.50
2008,03,05,15,08,9.40
2008,03,05,15,09,9.40
2008,03,05,15,10,9.40
2008,03,05,15,11,9.40
2008,03,05,15,12,9.30
2008,03,05,15,13,9.40
2008,03,05,15,14,9.40
2008,03,05,15,15,9.40
2008,03,05,15,16,9.40
2008,03,05,15,17,9.40
2008,03,05,15,18,9.40
2008,03,05,15,19,9.40
2008,03,05,15,20,9.40
2008,03,05,15,21,9.30
2008,03,05,15,22,9.30
2008,03,05,15,23,9.30
2008,03,05,15,24,9.40
2008,03,05,15,25,9.40
2008,03,05,15,26,9.40
2008,03,05,15,27,9.40
2008,03,05,15,28,9.30
2008,03,05,15,29,9.30
2008,03,05,15,30,9.20
2008,03,05,15,31,9.20
2008,03,05,15,32,9.10
2008,03,05,15,33,9.10
2008,03,05,15,34,9.10
2008,03,05,15,35,9.10
2008,03,05,15,36,9.10
2008,03,05,15,37,9.10
2008,03,05,15,38,9.20
2008,03,05,15,39,9.30
2008,03,05,15,40,9.40
2008,03,05,15,41,9.40
2008,03,05,15,42,9.40
2008,03,05,15,43,9.40
2008,03,05,15,44,9.40
2008,03,05,15,45,9.40
2008,03,05,15,46,9.40
2008,03,05,15,47,9.40
2008,03,05,15,48,9.40
2008,03,05,15,49,9.40
2008,03,05,15,50,9.40
2008,03,05,15,51,9.40
2008,03,05,15,52,9.40
2008,03,05,15,53,9.40
2008,03,05,15,54,9.40
2008,03,05,15,55,9.50
2008,03,05,15,56,9.50
2008,03,05,15,57,9.60
2008,03,05,15,58,9.60
2008,03,05,15,59,9.60
2008,03,05,16,00,9.70
2008,03,05,16,01,9.70
2008,03,05,16,02,9.70
2008,03,05,16,03,9.70
2008,03,05,16,04,9.60
2008,03,05,16,05,9.60
2008,03,05,16,06,9.50
2008,03,05,16,07,9.50
2008,03,05,16,08,9.40
2008,03,05,16,09,9.40
2008,03,05,16,10,9.40
2008,03,05,16,11,9.40
2008,03,05,16,12,9.40
2008,03,05,16,13,9.40
2008,03,05,16,14,9.40
2008,03,05,16,15,9.40
2008,03,05,16,16,9.40
2008,03,05,16,17,9.40
2008,03,05,16,18,9.40
2008,03,05,16,19,9.30
2008,03,05,16,20,9.30
2008,03,05,16,21,9.20
2008,03,05,16,22,9.10
2008,03,05,16,23,9.00
2008,03,05,16,24,8.90
2008,03,05,16,25,8.80
2008,03,05,16,26,8.80
2008,03,05,16,27,8.80
2008,03,05,16,28,8.70
2008,03,05,16,29,8.70
2008,03,05,16,30,8.70
2008,03,05,16,31,8.70
2008,03,05,16,32,8.70
2008,03,05,16,33,8.70
2008,03,05,16,34,8.70
2008,03,05,16,35,8.70
2008,03,05,16,36,8.70
2008,03,05,16,37,8.70
2008,03,05,16,38,8.70
2008,03,05,16,39,8.70
2008,03,05,16,40,8.70
2008,03,05,16,41,8.70
2008,03,05,16,42,8.70
2008,03,05,16,43,8.70
2008,03,05,16,44,8.60
2008,03,05,16,45,8.60
2008,03,05,16,46,8.60
2008,03,05,16,47,8.60
2008,03,05,16,48,8.60
2008,03,05,16,49,8.60
2008,03,05,16,50,8.60
2008,03,05,16,51,8.60
2008,03,05,16,52,8.50
2008,03,05,16,53,8.50
2008,03,05,16,54,8.40
2008,03,05,16,55,8.40
2008,03,05,16,56,8.40
2008,03,05,16,57,8.40
2008,03,05,16,58,8.40
2008,03,05,16,59,8.40
2008,03,05,17,00,8.40
2008,03,05,17,01,8.40
2008,03,05,17,02,8.40
2008,03,05,17,03,8.40
2008,03,05,17,04,8.40
2008,03,05,17,05,8.40
2008,03,05,17,06,8.40
2008,03,05,17,07,8.40
2008,03,05,17,08,8.30
2008,03,05,17,09,8.20
2008,03,05,17,10,8.20
2008,03,05,17,11,8.10
2008,03,05,17,12,8.00
2008,03,05,17,13,8.00
2008,03,05,17,14,7.90
2008,03,05,17,15,7.80
2008,03,05,17,16,7.80
2008,03,05,17,17,7.70
2008,03,05,17,18,7.70
2008,03,05,17,19,7.70
2008,03,05,17,20,7.60
2008,03,05,17,21,7.50
2008,03,05,17,22,7.40
2008,03,05,17,23,7.40
2008,03,05,17,24,7.30
2008,03,05,17,25,7.20
2008,03,05,17,26,7.20
2008,03,05,17,27,7.10
2008,03,05,17,28,7.00
2008,03,05,17,29,6.90
2008,03,05,17,30,6.90
2008,03,05,17,31,6.80
2008,03,05,17,32,6.80
2008,03,05,17,33,6.70
2008,03,05,17,34,6.70
2008,03,05,17,35,6.60
2008,03,05,17,36,6.60
2008,03,05,17,37,6.50
2008,03,05,17,38,6.40
2008,03,05,17,39,6.40
2008,03,05,17,40,6.30
2008,03,05,17,41,6.30
2008,03,05,17,42,6.20
2008,03,05,17,43,6.20
2008,03,05,17,44,6.10
2008,03,05,17,45,6.10
2008,03,05,17,46,6.00
2008,03,05,17,47,6.00
2008,03,05,17,48,5.90
2008,03,05,17,49,5.90
2008,03,05,17,50,5.80
2008,03,05,17,51,5.80
2008,03,05,17,52,5.70
2008,03,05,17,53,5.70
2008,03,05,17,54,5.60
2008,03,05,17,55,5.60
2008,03,05,17,56,5.50
2008,03,05,17,57,5.50
2008,03,05,17,58,5.40
2008,03,05,17,59,5.40
2008,03,05,18,00,5.40
2008,03,05,18,01,5.30
2008,03,05,18,02,5.30
2008,03,05,18,03,5.20
2008,03,05,18,04,5.20
2008,03,05,18,05,5.20
2008,03,05,18,06,5.10